Location: The Saddle
(36.8333°N, 80.3417°W)
Time: 12:25:22
(UTC-04:00)

SR - Pass Details

Date: 28 May 2024
Orbit: 580 x 858 km, 66.7° (Epoch: 14 June)

Event Time Altitude Azimuth Distance (km) Brightness Sun altitude
Rises 03:27:23 0° 322° (NW) 2,817 ? -24.2°
Reaches altitude 10° 03:29:46 10° 313° (NW) 1,901 ? -23.9°
Enters shadow 03:31:03 18° 303° (WNW) 1,461 ? -23.8°
